Petersburg, AK

3:43 PM AKST on January 18, 2017 (GMT -0900)
Johnson Petersburg

Weather History for PAPG - November, 2011

Change the Weather History Date:

Wednesday, November 9, 2011

  Actual Average Record
Temperature  
Mean Temperature 37 °F -  
Max Temperature 39 °F 39 °F 57 °F (1997)
Min Temperature 33 °F 32 °F 14 °F (1985)
Degree Days  
Heating Degree Days 28    
Moisture  
Dew Point 34 °F    
Average Humidity 90    
Maximum Humidity 100    
Minimum Humidity 81    
Precipitation  
Precipitation 0.00 in - - ()
Sea Level Pressure  
Sea Level Pressure 29.82 in    
Wind  
Wind Speed 2 mph (SW)    
Max Wind Speed 6 mph    
Max Gust Speed -    
Visibility 10 miles    
Events      
Averages and records for this station are not official NWS values.
T = Trace of Precipitation, MM = Missing Value Source: NWS Daily Summary

Daily Weather History Graph

Daily Weather History Graph

Search for Another Location

Airport or City:

Trip Planner

Search our weather history database for the weather conditions in past years. The results will help you decide how hot, cold, wet, or windy it might be!

Date:

Astronomy

Nov. 09, 2011 Rise Set
Actual Time 7:19 AM AKST 3:51 PM AKST
Civil Twilight 6:36 AM AKST 4:33 PM AKST
Nautical Twilight 5:50 AM AKST 5:19 PM AKST
Astronomical Twilight 5:06 AM AKST 6:03 PM AKST
Moon 3:03 PM AKST (11/9) 6:22 AM AKST (11/9)
Length of Visible Light 9h 56m
Length of Day
8h 32m
Waxing Gibbous, 99% of the Moon is Illuminated
Nov 9
Waxing Gibbous
Nov 10
Full
Nov 18
Last Quarter
Nov 24
New
Dec 2
First Quarter

Hourly Weather History & Observations

Time (AKST) Temp. Windchill Dew Point Humidity Pressure Visibility Wind Dir Wind Speed Gust Speed Precip Events Conditions
12:16 AM 35.6 °F 32.8 °F 33.8 °F 93% 29.96 in 10.0 mi South 3.5 mph - N/A   Partly Cloudy
12:36 AM 35.6 °F 32.8 °F 33.8 °F 93% 29.95 in 10.0 mi South 3.5 mph - N/A   Partly Cloudy
12:56 AM 35.6 °F - 33.8 °F 93% 29.95 in 10.0 mi Calm Calm - N/A   Scattered Clouds
1:16 AM 35.6 °F 32.8 °F 35.6 °F 100% 29.95 in 10.0 mi SW 3.5 mph - N/A   Overcast
1:36 AM 35.6 °F 32.8 °F 33.8 °F 93% 29.94 in 10.0 mi WSW 3.5 mph - N/A   Overcast
1:56 AM 35.6 °F 32.8 °F 33.8 °F 93% 29.94 in 10.0 mi WSW 3.5 mph - N/A   Overcast
2:16 AM 35.6 °F 32.8 °F 33.8 °F 93% 29.93 in 10.0 mi SW 3.5 mph - N/A   Overcast
2:36 AM 35.6 °F 32.8 °F 33.8 °F 93% 29.93 in 10.0 mi SW 3.5 mph - N/A   Overcast
2:56 AM 35.6 °F - 33.8 °F 93% 29.92 in 10.0 mi Calm Calm - N/A   Overcast
3:16 AM 35.6 °F 32.8 °F 33.8 °F 93% 29.91 in 10.0 mi South 3.5 mph - N/A   Overcast
3:36 AM 35.6 °F 32.8 °F 33.8 °F 93% 29.91 in 10.0 mi WSW 3.5 mph - N/A   Overcast
3:56 AM 35.6 °F - 33.8 °F 93% 29.90 in 10.0 mi Calm Calm - N/A   Overcast
4:16 AM 35.6 °F - 33.8 °F 93% 29.89 in 10.0 mi Calm Calm - N/A   Overcast
4:36 AM 35.6 °F - 33.8 °F 93% 29.88 in 10.0 mi Calm Calm - N/A   Overcast
4:56 AM 35.6 °F 32.8 °F 33.8 °F 93% 29.88 in 10.0 mi SW 3.5 mph - N/A   Overcast
5:16 AM 35.6 °F - 33.8 °F 93% 29.86 in 10.0 mi Calm Calm - N/A   Overcast
5:36 AM 35.6 °F 32.8 °F 33.8 °F 93% 29.85 in 10.0 mi SW 3.5 mph - N/A   Overcast
5:56 AM 35.6 °F - 33.8 °F 93% 29.85 in 10.0 mi Calm Calm - N/A   Overcast
6:16 AM 35.6 °F - 33.8 °F 93% 29.84 in 10.0 mi Calm Calm - N/A   Mostly Cloudy
6:36 AM 35.6 °F 32.8 °F 33.8 °F 93% 29.83 in 10.0 mi WSW 3.5 mph - N/A   Mostly Cloudy
6:56 AM 35.6 °F 32.8 °F 33.8 °F 93% 29.83 in 10.0 mi SW 3.5 mph - N/A   Mostly Cloudy
7:16 AM 35.6 °F - 33.8 °F 93% 29.82 in 10.0 mi Calm Calm - N/A   Mostly Cloudy
7:36 AM 35.6 °F - 33.8 °F 93% 29.82 in 10.0 mi Calm Calm - N/A   Mostly Cloudy
7:56 AM 35.6 °F - 33.8 °F 93% 29.82 in 10.0 mi Calm Calm - N/A   Overcast
8:16 AM 35.6 °F - 33.8 °F 93% 29.81 in 10.0 mi Calm Calm - N/A   Overcast
8:36 AM 35.6 °F - 33.8 °F 93% 29.81 in 10.0 mi Calm Calm - N/A   Overcast
8:56 AM 35.6 °F - 33.8 °F 93% 29.81 in 10.0 mi Calm Calm - N/A   Mostly Cloudy
9:16 AM 35.6 °F 32.8 °F 33.8 °F 93% 29.81 in 10.0 mi SSW 3.5 mph - N/A   Mostly Cloudy
9:36 AM 37.4 °F 34.9 °F 35.6 °F 93% 29.80 in 10.0 mi SSW 3.5 mph - N/A   Mostly Cloudy
9:56 AM 37.4 °F 32.8 °F 33.8 °F 87% 29.79 in 10.0 mi SW 5.8 mph - N/A   Overcast
10:16 AM 37.4 °F 34.9 °F 33.8 °F 87% 29.79 in 10.0 mi SW 3.5 mph - N/A   Overcast
10:36 AM 37.4 °F - 35.6 °F 93% 29.79 in 10.0 mi Calm Calm - N/A   Overcast
10:56 AM 37.4 °F - 35.6 °F 93% 29.80 in 10.0 mi Calm Calm - N/A   Overcast
11:16 AM 39.2 °F - 35.6 °F 87% 29.79 in 10.0 mi Calm Calm - N/A   Overcast
11:36 AM 39.2 °F - 35.6 °F 87% 29.78 in 10.0 mi Calm Calm - N/A   Overcast
11:56 AM 39.2 °F - 35.6 °F 87% 29.78 in 10.0 mi Calm Calm - N/A   Overcast
12:16 PM 39.2 °F - 35.6 °F 87% 29.78 in 10.0 mi Calm Calm - N/A   Overcast
12:36 PM 39.2 °F - 35.6 °F 87% 29.77 in 10.0 mi Calm Calm - N/A   Overcast
12:56 PM 39.2 °F - 33.8 °F 81% 29.76 in 10.0 mi Calm Calm - N/A   Mostly Cloudy
1:16 PM 39.2 °F - 35.6 °F 87% 29.76 in 10.0 mi Calm Calm - N/A   Mostly Cloudy
1:36 PM 39.2 °F - 33.8 °F 81% 29.76 in 10.0 mi Calm Calm - N/A   Mostly Cloudy
1:56 PM 39.2 °F - 33.8 °F 81% 29.75 in 10.0 mi Calm Calm - N/A   Mostly Cloudy
2:16 PM 39.2 °F - 33.8 °F 81% 29.74 in 10.0 mi Calm Calm - N/A   Mostly Cloudy
2:36 PM 39.2 °F - 35.6 °F 87% 29.73 in 10.0 mi Calm Calm - N/A   Mostly Cloudy
2:56 PM 39.2 °F - 33.8 °F 81% 29.73 in 10.0 mi Calm Calm - N/A   Scattered Clouds
3:16 PM 39.2 °F - 33.8 °F 81% 29.73 in 10.0 mi Calm Calm - N/A   Scattered Clouds
3:36 PM 37.4 °F - 35.6 °F 93% 29.73 in 10.0 mi Calm Calm - N/A   Scattered Clouds
3:56 PM 37.4 °F 33.8 °F 33.8 °F 87% 29.73 in 10.0 mi SW 4.6 mph - N/A   Scattered Clouds
4:16 PM 37.4 °F 33.8 °F 32.0 °F 81% 29.75 in 10.0 mi SW 4.6 mph - N/A   Scattered Clouds
4:36 PM 35.6 °F 30.7 °F 30.2 °F 81% 29.75 in 10.0 mi SW 5.8 mph - N/A   Scattered Clouds
4:56 PM 35.6 °F 32.8 °F 30.2 °F 81% 29.75 in 10.0 mi SW 3.5 mph - N/A   Scattered Clouds
5:16 PM 35.6 °F 32.8 °F 30.2 °F 81% 29.74 in 10.0 mi South 3.5 mph - N/A   Scattered Clouds
5:36 PM 35.6 °F 32.8 °F 32.0 °F 87% 29.74 in 10.0 mi South 3.5 mph - N/A   Scattered Clouds
5:56 PM 35.6 °F 32.8 °F 32.0 °F 87% 29.74 in 10.0 mi SW 3.5 mph - N/A   Scattered Clouds
6:16 PM 33.8 °F 29.6 °F 30.2 °F 87% 29.74 in 10.0 mi SW 4.6 mph - N/A   Scattered Clouds
6:36 PM 33.8 °F 29.6 °F 30.2 °F 87% 29.74 in 10.0 mi SW 4.6 mph - N/A   Scattered Clouds
6:56 PM 32.0 °F 27.5 °F 30.2 °F 93% 29.74 in 10.0 mi WSW 4.6 mph - N/A   Scattered Clouds
7:16 PM 33.8 °F 29.6 °F 30.2 °F 87% 29.74 in 10.0 mi SW 4.6 mph - N/A   Scattered Clouds
7:36 PM 33.8 °F 29.6 °F 30.2 °F 87% 29.74 in 10.0 mi SW 4.6 mph - N/A   Scattered Clouds
7:56 PM 35.6 °F 30.7 °F 30.2 °F 81% 29.74 in 10.0 mi WSW 5.8 mph - N/A   Mostly Cloudy
8:16 PM 33.8 °F 29.6 °F 30.2 °F 87% 29.74 in 10.0 mi WSW 4.6 mph - N/A   Mostly Cloudy
8:36 PM 33.8 °F 30.8 °F 30.2 °F 87% 29.75 in 10.0 mi WSW 3.5 mph - N/A   Mostly Cloudy
8:56 PM 32.0 °F - 30.2 °F 93% 29.75 in 10.0 mi Calm Calm - N/A   Mostly Cloudy
9:16 PM 32.0 °F - 30.2 °F 93% 29.75 in 10.0 mi Calm Calm - N/A   Mostly Cloudy
9:36 PM 30.2 °F 24.3 °F 28.4 °F 93% 29.76 in 10.0 mi West 5.8 mph - N/A   Mostly Cloudy
10:16 PM 32.0 °F 26.4 °F 28.4 °F 87% 29.77 in 10.0 mi WSW 5.8 mph - N/A   Overcast
10:36 PM 33.8 °F 28.6 °F 30.2 °F 87% 29.77 in 10.0 mi SW 5.8 mph - N/A   Overcast
10:56 PM 30.2 °F 25.4 °F 28.4 °F 93% 29.78 in 10.0 mi SW 4.6 mph - N/A   Mostly Cloudy
11:16 PM 30.2 °F 24.3 °F 28.4 °F 93% 29.78 in 10.0 mi SW 5.8 mph - N/A   Mostly Cloudy
11:36 PM 32.0 °F 28.7 °F 30.2 °F 93% 29.79 in 10.0 mi WSW 3.5 mph - N/A   Overcast
11:56 PM 30.2 °F 25.4 °F 28.4 °F 93% 29.79 in 10.0 mi West 4.6 mph - N/A   Overcast